Airfield :
LOGIN :

Register | Disclaimer

   EN    FR    IT 

 










Legend :    VFR   Marginal VFR   IFR   Intensive IFR   Very Intensive IFR
Visi :
Ceiling :
>= 8 km
>= 3000ft
5 to 8 km
1000 to 3000 ft
1500m to 5 km
500 to 1000 ft
800 to 1500m
200 to 500 ft
< 800m
< 200 ft
Symbols :   Thunderstorms  Fog  Heavy snow  Heavy precipitations  Wind > 20 kt
SIGMETs :     Misc.  Thunderstorms  Icing  Turbulence  Mountain Waves  Volcanic Ashes







- Airport Elevation : 989 ft
- IATA code : TRN


LIMF - Torino Caselle

CURRENT METAR :
  • 162150Z VRB02KT CAVOK M01/M04 Q1014

EXPIRED METARs :
  • 162120Z 28002KT CAVOK M02/M05 Q1013
  • 162050Z 30003KT CAVOK M00/M04 Q1013
  • 162020Z 27005KT CAVOK M00/M03 Q1013
  • 161950Z 28005KT 6000 NSC M01/M03 Q1013
  • 161920Z 20003KT 190V250 5000 BR NSC 00/M01 Q1012

TAF TAF LIMF
Valid from the 16 at 18:00 until the 17 at 18:00 UTC


161700Z 1618/1718 VRB05KT CAVOK
No reported NOTAMs for that airfield.



MET'MAP, your aeronautical weather chart ! - Copyright ORBIFLY December 2007 - Disclaimer

ORBIFLY MET'MAP TEAM :

Programming & Development : Alexandra Zaïnal
Concept & Development : Baudouin d'Aumeries
Co-Development & Prog : Marc-Olivier Méhu
Technical & hardware support : Manuel Goepfert

Contact : metmap@orbifly.com




SOURCES & CREDITS :

   NOAA